Regional Weather Roundup
Issued by NWS

Home | Current Version | Previous Version | Graphics & Text | Print | Product List | Glossary On
Versions: 1 2 3 4 5 6 7 8 9 10 11 12 13 14 15 16 17 18 19 20 21 22 23 24 25 26 27 28 29 30 31 32 33 34 35 36 37 38 39 40 41 42 43 44 45 46 47 48 49 50
000
ASUS43 KOAX 181310
RWRNE

WEATHER ROUNDUP FOR NEBRASKA
NATIONAL WEATHER SERVICE OMAHA NE
700 AM CST SAT NOV 18 2017

NOTES: SATELLITE DATA IS BEING USED TO AUGMENT CLOUD COVER ABOVE
       12000 FEET.
       "FAIR" INDICATES FEW OR NO CLOUDS BELOW 12,000 FEET WITH NO
       SIGNIFICANT WEATHER AND/OR OBSTRUCTIONS TO VISIBILITY.


NEZ001>004-019>022-054>056-181400-
NEBRASKA PANHANDLE

CITY           SKY/WX    TMP DP  RH WIND       PRES   REMARKS
SCOTTSBLUFF    CLEAR     28  20  71 NW9       30.16R WCI  19
ALLIANCE       CLEAR     23  19  85 W12       30.11R WCI  12
CHADRON        CLEAR     28  21  75 W15       30.13R WCI  16
GORDON         FAIR      28  24  86 W10       30.07R WCI  18
KIMBALL        CLEAR     26  20  78 NW12      30.14R WCI  15
SIDNEY         CLEAR     28  19  69 NW12      30.14R WCI  18
$$

NEZ057>060-069>072-079>082-181400-
SOUTHWEST NEBRASKA

CITY           SKY/WX    TMP DP  RH WIND       PRES   REMARKS
NORTH PLATTE   CLEAR     35  31  85 NW14      30.05R WCI  26
IMPERIAL       CLEAR     35  27  72 NW17G29   30.09R WCI  25
LEXINGTON      CLOUDY    39  35  85 NW17      29.99R WCI  30
MCCOOK         MOCLDY    38  35  89 NW20      30.04R WCI  28
OGALLALA       CLEAR     35  28  76 NW22      30.08R WCI  23
$$

NEZ005>010-023>029-035>040-094-181400-
NORTH CENTRAL NEBRASKA

CITY           SKY/WX    TMP DP  RH WIND       PRES   REMARKS
VALENTINE      CLEAR     35  28  75 NW15G22   30.01R WCI  25
AINSWORTH      CLEAR     34  32  92 NW13      30.01R WCI  25
BROKEN BOW     PTCLDY    38  34  85 NW18G28   29.98R WCI  28
O`NEILL        PTCLDY    38  36  92 NW18      29.95R WCI  28
ORD            MOCLDY    38  35  89 NW18      29.94R WCI  28
THEDFORD       CLEAR     34  31  87 NW15G22   30.03R WCI  25
$$

NEZ041-046>049-061>064-073>077-083>087-181400-
SOUTH CENTRAL NEBRASKA

CITY           SKY/WX    TMP DP  RH WIND       PRES   REMARKS
GRAND ISLAND   CLOUDY    39  36  89 NW18      29.92R WCI  30
AURORA         CLOUDY    38  35  87 NW16      29.90R WCI  29
HASTINGS       CLOUDY    38  35  89 NW18G28   29.93R WCI  28
HEBRON         CLOUDY    41  35  77 N15G24    29.86R
HOLDREGE       CLOUDY    37  36  94 NW17      29.97R WCI  28
KEARNEY        CLOUDY    38  35  89 NW16G24   29.95R WCI  29
YORK           CLOUDY    37  36  93 N17G23    29.88R WCI  28
$$

NEZ011>018-030>034-042>045-181400-
NORTHEAST NEBRASKA

CITY           SKY/WX    TMP DP  RH WIND       PRES   REMARKS
NORFOLK        MOCLDY    36  29  75 NW18G25   29.89R WCI  26
ALBION         CLOUDY    39  34  81 NW14G20   29.91R WCI  31
BLAIR          CLOUDY    37  33  86 NW17G24   29.79R WCI  27
COLUMBUS       PTCLDY    37  30  75 NW17G23   29.89R WCI  27
FREMONT        MOCLDY    37  32  82 NW15      29.85R WCI  28
TEKAMAH        CLOUDY    37  32  82 NW17      29.83R WCI  27
WAYNE          CLOUDY    34  29  83 NW15G21   29.88R WCI  24
$$

NEZ050>053-065>068-078-088>093-181400-
SOUTHEAST NEBRASKA

CITY           SKY/WX    TMP DP  RH WIND       PRES   REMARKS
LINCOLN        CLOUDY    40  33  76 N22G28    29.84R WCI  30
OMAHA EPPLEY   CLOUDY    38  32  79 N18G26    29.77R WCI  28
BEATRICE       CLOUDY    40  37  88 N18G26    29.82R WCI  31
FALLS CITY     LGT RAIN  42  39  89 N14G23    29.73R FOG
NEBRASKA CITY  CLOUDY    39  39 100 N14G23    29.75R WCI  31
PLATTSMOUTH    CLOUDY    38  37  93 NW16G22   29.77R WCI  29
$$

NEZ044-045-051>053-067-181400-
OMAHA AREA

CITY           SKY/WX    TMP DP  RH WIND       PRES   REMARKS
OMAHA EPPLEY   CLOUDY    38  32  79 N18G26    29.77R WCI  28
BLAIR          CLOUDY    37  33  86 NW17G24   29.79R WCI  27
FREMONT        MOCLDY    37  32  82 NW15      29.85R WCI  28
MILLARD        CLOUDY    40  35  83 NW14G21   29.80R WCI  32
OFFUTT AFB     CLOUDY    38  34  84 NW17      29.77R WCI  29
PLATTSMOUTH    CLOUDY    38  37  93 NW16G22   29.77R WCI  29
WAHOO          FAIR      38  32  78 NW17G23   29.83R WCI  29
$$




USA.gov is the U.S. government's official web portal to all federal, state and local government web resources and services.